This is the latest recevied weather packets stored in our database for station/object K6JWN. If no packets are shown the sender has not sent any weather packets the latest 1 day(s).
| Time | Temp. | Humidity | Pressure | Rain* | Wind** | Luminosity | Snow |
|---|---|---|---|---|---|---|---|
| 1778009357 | 16.67° C | 69% | 1015.2 hPa | 0 mm | 1.34 m/s, 225° | - | - |
| 1778008757 | 16.67° C | 69% | 1015.1 hPa | 0 mm | 1.34 m/s, 225° | - | - |
| 1778008157 | 16.11° C | 70% | 1015.2 hPa | 0 mm | 1.34 m/s, 45° | - | - |
| 1778007558 | 16.67° C | 71% | 1015.2 hPa | 0 mm | 1.34 m/s, 225° | - | - |
| 1778006957 | 16.11° C | 70% | 1015.1 hPa | 0 mm | 1.79 m/s, 225° | - | - |
| 1778006357 | 15.56° C | 73% | 1014.9 hPa | 0 mm | 1.79 m/s, 225° | - | - |
| 1778005757 | 15.56° C | 74% | 1014.9 hPa | 0 mm | 1.34 m/s, 225° | - | - |
| 1778005157 | 15° C | 73% | 1015.1 hPa | 0 mm | 1.79 m/s, 225° | - | - |
| 1778004557 | 15° C | 75% | 1014.9 hPa | 0 mm | 1.34 m/s, 225° | - | - |
| 1778003957 | 15° C | 74% | 1014.8 hPa | 0 mm | 2.68 m/s, 225° | - | - |
| 1778003357 | 15.56° C | 72% | 1014.8 hPa | 0 mm | 1.79 m/s, 225° | - | - |
| 1778002757 | 15° C | 75% | 1014.7 hPa | 0 mm | 1.79 m/s, 225° | - | - |
| 1778002157 | 15° C | 74% | 1014.7 hPa | 0 mm | 1.79 m/s, 225° | - | - |
| 1778001556 | 14.44° C | 76% | 1014.7 hPa | 0 mm | 0.89 m/s, 225° | - | - |
| 1778000957 | 14.44° C | 77% | 1014.7 hPa | 0 mm | 1.79 m/s, 225° | - | - |
| 1778000357 | 13.89° C | 78% | 1014.8 hPa | 0 mm | 1.34 m/s, 225° | - | - |
| 1777999756 | 13.33° C | 78% | 1014.9 hPa | 0 mm | 0.45 m/s, 225° | - | - |
| 1777999157 | 13.33° C | 79% | 1014.7 hPa | 0 mm | 1.79 m/s, 225° | - | - |
| 1777998556 | 12.78° C | 80% | 1014.8 hPa | 0 mm | 0.89 m/s, 225° | - | - |
| 1777997956 | 12.78° C | 80% | 1014.7 hPa | 0 mm | 0.89 m/s, 225° | - | - |
| 1777997357 | 12.78° C | 81% | 1014.7 hPa | 0 mm | 1.34 m/s, 225° | - | - |
| 1777996757 | 12.22° C | 82% | 1014.7 hPa | 0 mm | 1.79 m/s, 225° | - | - |
| 1777996156 | 12.22° C | 82% | 1014.7 hPa | 0 mm | 1.34 m/s, 225° | - | - |
| 1777995557 | 12.22° C | 83% | 1014.6 hPa | 0 mm | 2.24 m/s, 45° | - | - |
| 1777994957 | 12.22° C | 83% | 1014.6 hPa | 0 mm | 1.79 m/s, 225° | - | - |
* Rain latest hour (hover to see other rain measurements)
** Current wind speed in m/s (hover to see current wind gust speed)